Regional Weather Roundup
Issued by NWS

Home | Current Version | Previous Version | Text Only | Print | Product List | Glossary On
Versions: 1 2 3 4 5 6 7 8 9 10 11 12 13 14 15 16 17 18 19 20 21 22 23 24 25 26 27 28 29 30 31 32 33 34 35 36 37 38 39 40 41 42 43 44 45 46 47 48 49 50
000
ASUS44 KBMX 221410
RWRAL

ALABAMA REGIONAL WEATHER ROUNDUP
NATIONAL WEATHER SERVICE BIRMINGHAM AL
800 AM CST MON JAN 22 2018

NOTE: "FAIR" INDICATES FEW OR NO CLOUDS BELOW 12,000 FEET
WITH NO SIGNIFICANT WEATHER AND/OR OBSTRUCTIONS TO VISIBILITY.

THE REMARK "TC" DENOTES TEMPERATURE IN DEGREES CELSIUS.

ALZ001>011-014-016>018-020-221500-
NORTH ALABAMA

CITY           SKY/WX    TMP DP  RH WIND       PRES   REMARKS
MUSCLE SHOALS  CLOUDY    59  47  64 S15G25    29.92S
HUNTSVILLE     CLOUDY    57  42  57 S14       29.96S
DECATUR        PTSUNNY   57  41  55 S20       29.96F
HALEYVILLE     CLOUDY    54  46  74 S15G23    29.96S
GADSDEN        CLOUDY    50  44  80 E3        30.04S
$$

ALZ012-013-022-023-030>036-040>044-221500-
WEST CENTRAL ALABAMA

CITY           SKY/WX    TMP DP  RH WIND       PRES   REMARKS
TUSCALOOSA     CLOUDY    60  54  80 S13       29.98S
DEMOPOLIS        N/A     56  52  84 SE8       29.98F
$$

ALZ015-024>026-033>036-041>044-221500-
CENTRAL ALABAMA

CITY           SKY/WX    TMP DP  RH WIND       PRES   REMARKS
BIRMINGHAM     CLOUDY    58  47  66 S12G18    30.03F
MONTGOMERY     PTSUNNY   51  42  71 E6        30.06F
SHELBY CO ARPT CLOUDY    54  46  74 VRB3      30.03S
MAXWELL AFB    PTSUNNY   54  48  82 E3        30.04F
GREENVILLE     CLOUDY    53  46  77 SE5       30.04F
SELMA          PTSUNNY   55  46  71 SE7       30.02R
PRATTVILLE     CLOUDY    51  44  76 E6        30.04F
BESSEMER       CLOUDY    53  44  71 VRB7      30.02S
TALLADEGA      PTSUNNY   54  43  67 CALM      30.05S
PELL CITY      PTSUNNY   45  45 100 CALM      30.03F
MARION         CLOUDY    54  50  84 SE6       30.01R
SYLACAUGA      CLOUDY    58  48  68 S10G17    30.04F
$$

ALZ019-021-028-029-037-038-045>048-221500-
EAST CENTRAL ALABAMA

CITY           SKY/WX    TMP DP  RH WIND       PRES   REMARKS
ANNISTON       CLOUDY    55  42  61 NE7       30.05F
ALEXANDER CITY PTSUNNY   49  46  90 CALM      30.07F
AUBURN         CLOUDY    54  47  77 SE6       30.11R
$$

ALZ051>064-221500-
SOUTHWEST ALABAMA

CITY           SKY/WX    TMP DP  RH WIND       PRES   REMARKS
MOBILE         CLOUDY    63  62  97 SE9       30.01S FOG
BROOKLEY FIELD CLOUDY    64  63  96 S12       30.02R
EVERGREEN      CLOUDY    53  49  86 CALM      30.04R
$$

ALZ049-050-065>069-221500-
SOUTHEAST ALABAMA

CITY           SKY/WX    TMP DP  RH WIND       PRES   REMARKS
DOTHAN         CLOUDY    57  55  93 SE7       30.11R
OZARK          CLOUDY    56  52  85 SE7       30.07R
TROY           CLOUDY    55  49  80 S3        30.08R
EUFAULA        PTSUNNY   56  52  86 S5        30.08R
$$



USA.gov is the U.S. government's official web portal to all federal, state and local government web resources and services.